Hourly Data Report for October 06, 2017

All times are specified in Local Standard Time (LST). Add 1 hour to adjust for Daylight Saving Time where and when it is observed.

WINDSOR A
ONTARIO

42°16'34.000" N
82°57'19.000" W
189.60 m
6139527
71538
YQG

Download Data

Hourly Data (October 2017)
Hourly Data Report for October 6, 2017
Temp Definition
°C
Dew Point Temp Definition
°C
Rel Hum Definition
%
Wind Dir Definition
10's deg

Wind Spd Definition
km/h
Visibility Definition
km
Stn Press Definition
kPa
Hmdx Definition


Wind Chill Definition


Weather Definition


TIME
00:00 Legend Double Dagger 15.7 13.6 87 36 7 12.9 99.64     Rain
01:00 Legend Double Dagger 15.5 13.4 87 4 11 12.9 99.62     Cloudy
02:00 Legend Double Dagger 15.8 14.2 90 36 1 24.1 99.59     LegendNANA
03:00 Legend Double Dagger 15.4 13.4 88 36 10 12.9 99.65     Rain
04:00 Legend Double Dagger 15.1 13.4 89 5 12 12.9 99.57     Rain
05:00 Legend Double Dagger 14.4 13.5 94 3 9 12.9 99.60     Rain
06:00 Legend Double Dagger 14.2 13.3 94 1 17 9.7 99.63     Rain,Fog
07:00 Legend Double Dagger 14.1 13.5 96 36 11 9.7 99.61     Rain,Fog
08:00 Legend Double Dagger 14.3 13.4 94 4 8 8.1 99.65     Rain,Fog
09:00 Legend Double Dagger 15.7 14.6 93 8 9 12.9 99.63     LegendNANA
10:00 Legend Double Dagger 15.2 14.3 94 6 8 3.2 99.61     Rain,Fog
11:00 Legend Double Dagger 15.6 14.9 96 6 8 3.6 99.57     Rain,Fog
12:00 Legend Double Dagger 16.3 15.2 93 9 8 12.9 99.53     LegendNANA
13:00 Legend Double Dagger 16.4 14.8 90 7 10 12.9 99.47     Cloudy
14:00 Legend Double Dagger 17.0 15.3 90 8 10 11.3 99.38     LegendNANA
15:00 Legend Double Dagger 16.9 15.5 91 5 8 9.7 99.35     Fog
16:00 Legend Double Dagger 16.8 15.9 95 5 11 4.8 99.31     Drizzle,Fog
17:00 Legend Double Dagger 16.7 16.2 97 5 7 4.8 99.29     Drizzle,Fog
18:00 Legend Double Dagger 16.4 16.1 98 4 5 4.8 99.27     Drizzle,Fog
19:00 Legend Double Dagger 16.6 16.2 98 4 9 4.0 99.26     Drizzle,Fog
20:00 Legend Double Dagger 16.8 16.4 98 16 3 2.4 99.28     Rain,Fog
21:00 Legend Double Dagger 16.9 16.6 98 17 4 4.0 99.26     Drizzle,Fog
22:00 Legend Double Dagger 17.0 16.7 98 16 10 3.2 99.18     Fog
23:00 Legend Double Dagger 18.4 18.0 98 17 10 4.0 99.16     Fog

Notes on Data Quality.

Legend

  • E = Estimated
  • M = Missing
  • NA = Not Available
  • ‡ = Partner data that is not subject to review by the National Climate Archives
Date modified: